FW3090 Weather Reports


Display with metric or nautical units.
time (UTC)temp
F
wind
direction
speed
MPH
gust
MPH
rain 1hr
in
rain 24hr
in
rain mn
in
humidity
%
barometer
mb
20260503191046 73 282 4.0 9.0 0.00 0.00 0.00 35 1004.4
20260503190324 74 325 4.0 11.0 0.00 0.00 0.00 36 1004.4
20260503185825 73 300 5.0 12.0 0.00 0.00 0.00 35 1004.5
20260503185544 73 328 5.0 12.0 0.00 0.00 0.00 34 1004.5
20260503184818 72 244 6.0 10.0 0.00 0.00 0.00 35 1004.5
20260503184312 73 261 6.0 13.0 0.00 0.00 0.00 35 1004.6
20260503184029 73 308 7.0 13.0 0.00 0.00 0.00 35 1004.6
20260503183300 73 290 5.0 11.0 0.00 0.00 0.00 37 1004.6
20260503183020 72 277 5.0 10.0 0.00 0.00 0.00 37 1004.5
20260503182248 71 242 6.0 9.0 0.00 0.00 0.00 38 1004.6
20260503181741 72 242 5.0 10.0 0.00 0.00 0.00 37 1004.8
20260503181236 72 255 4.0 10.0 0.00 0.00 0.00 34 1004.7
20260503180730 72 291 5.0 10.0 0.00 0.00 0.00 39 1004.8
20260503180224 72 286 6.0 12.0 0.00 0.00 0.00 35 1004.9
20260503175718 72 235 5.0 12.0 0.00 0.00 0.00 37 1004.9
20260503175211 71 290 5.0 10.0 0.00 0.00 0.00 37 1004.9
20260503174929 70 261 5.0 10.0 0.00 0.00 0.00 43 1005.0
20260503174159 69 253 5.0 10.0 0.00 0.00 0.00 37 1005.0
20260503173653 70 259 4.0 8.0 0.00 0.00 0.00 37 1005.1
20260503173147 69 236 4.0 10.0 0.00 0.00 0.00 41 1005.2
20260503172642 70 196 5.0 10.0 0.00 0.00 0.00 34 1005.1
20260503172358 70 292 5.0 12.0 0.00 0.00 0.00 36 1005.1
20260503171629 68 230 5.0 12.0 0.00 0.00 0.00 42 1005.2
20260503171123 70 276 4.0 8.0 0.00 0.00 0.00 43 1005.3
20260503170618 69 217 5.0 8.0 0.00 0.00 0.00 37 1005.3
20260503170112 69 296 4.0 8.0 0.00 0.00 0.00 43 1005.3
20260503150859 63 259 7.0 11.0 0.00 0.00 0.00 41 1005.7
20260503150616 63 237 7.0 11.0 0.00 0.00 0.00 41 1005.8
20260503131258 59 244 6.0 13.0 0.00 0.00 0.00 46 1006.5
20260503130758 59 246 7.0 14.0 0.00 0.00 0.00 46 1006.5
20260503130258 58 228 8.0 14.0 0.00 0.00 0.00 46 1006.4
20260503110751 57 204 7.0 14.0 0.00 0.00 0.00 48 1006.1
20260503110251 57 216 7.0 14.0 0.00 0.00 0.00 48 1006.1
20260503100229 56 287 4.0 7.0 0.00 0.00 0.00 50 1007.0
20260503090116 55 203 3.0 8.0 0.00 0.00 0.00 50 1007.9
20260503081522 54 247 2.0 4.0 0.00 0.00 0.00 49 1008.6
20260503081232 54 291 2.0 8.0 0.00 0.00 0.00 49 1008.7
20260503080511 54 242 2.0 8.0 0.00 0.00 0.00 49 1008.5
20260503072928 55 266 2.0 4.0 0.00 0.00 0.00 48 1008.8
20260503072422 55 266 2.0 4.0 0.00 0.00 0.00 48 1008.9
20260503071917 55 265 2.0 4.0 0.00 0.00 0.00 47 1009.1
20260503071410 55 265 2.0 5.0 0.00 0.00 0.00 47 1009.1
20260503071121 56 238 3.0 6.0 0.00 0.00 0.00 47 1009.2
20260503070359 56 285 3.0 7.0 0.00 0.00 0.00 47 1009.3
20260503060248 55 234 2.0 4.0 0.00 0.00 0.00 46 1009.6
20260503054728 55 238 1.0 3.0 0.00 0.00 0.00 47 1010.0
20260503054223 55 238 1.0 3.0 0.00 0.00 0.00 48 1010.0
20260503053717 55 235 1.0 3.0 0.00 0.00 0.00 49 1010.0
20260503053430 55 250 1.0 3.0 0.00 0.00 0.00 49 1010.0
20260503052705 55 250 1.0 3.0 0.00 0.00 0.00 49 1010.0
20260503052159 55 249 0.0 2.0 0.00 0.00 0.00 50 1010.1
20260503051653 54 248 0.0 2.0 0.00 0.00 0.00 49 1010.1
20260503051146 54 248 1.0 3.0 0.00 0.00 0.00 50 1010.3
20260503050640 54 248 1.0 4.0 0.00 0.00 0.00 50 1010.1
20260503050135 54 249 1.0 4.0 0.00 0.00 0.00 50 1010.3
20260503045629 54 246 1.0 3.0 0.00 0.00 0.00 51 1010.3
20260503045122 53 246 0.0 3.0 0.00 0.00 0.00 51 1010.1
20260503044616 53 245 0.0 2.0 0.00 0.00 0.00 52 1010.3
20260503044111 53 245 0.0 2.0 0.00 0.00 0.00 52 1010.3
20260503043604 53 245 0.0 1.0 0.00 0.00 0.00 53 1010.3
20260503043059 53 245 0.0 1.0 0.00 0.00 0.00 55 1010.4
20260503042552 53 245 0.0 3.0 0.00 0.00 0.00 54 1010.4
20260503042048 53 245 0.0 3.0 0.00 0.00 0.00 54 1010.4
20260503041801 53 244 0.0 2.0 0.00 0.00 0.00 53 1010.5
20260503041034 53 244 0.0 2.0 0.00 0.00 0.00 56 1010.5
20260503040529 53 244 0.0 1.0 0.00 0.00 0.00 55 1010.6
20260503040504 53 244 0.0 0.0 0.00 0.00 0.00 59 1010.6
20260503035517 53 244 0.0 0.0 0.00 0.00 0.00 57 1010.6
20260503035011 53 244 0.0 0.0 0.00 0.00 0.00 57 1010.8
20260503034504 53 244 0.0 0.0 0.00 0.00 0.00 60 1010.8
20260503033959 53 244 0.0 0.0 0.00 0.00 0.00 59 1010.9
20260503033453 53 244 0.0 0.0 0.00 0.00 0.00 59 1011.0
20260503033211 53 244 0.0 1.0 0.00 0.00 0.00 61 1011.0
20260503032441 53 244 0.0 1.0 0.00 0.00 0.00 59 1011.0
20260503031934 53 244 0.0 1.0 0.00 0.00 0.00 58 1011.0
20260503031429 54 244 0.0 2.0 0.00 0.00 0.00 59 1011.1
20260503030923 54 244 0.0 2.0 0.00 0.00 0.00 57 1011.1
20260503030417 53 244 0.0 1.0 0.00 0.00 0.00 59 1011.1
20260503025910 53 244 0.0 3.0 0.00 0.00 0.00 61 1011.3
20260503025405 53 244 0.0 3.0 0.00 0.00 0.00 56 1011.2
20260503024858 53 219 0.0 2.0 0.00 0.00 0.00 59 1011.3
20260503024614 53 219 1.0 2.0 0.00 0.00 0.00 63 1011.4
20260503023846 53 219 0.0 2.0 0.00 0.00 0.00 61 1011.4
20260503023341 54 219 0.0 2.0 0.00 0.00 0.00 60 1011.3
20260503022834 55 219 0.0 2.0 0.00 0.00 0.00 56 1011.4
20260503022329 55 234 0.0 0.0 0.00 0.00 0.00 51 1011.5
20260503021823 54 234 0.0 0.0 0.00 0.00 0.00 57 1011.5
20260503021316 55 234 0.0 0.0 0.00 0.00 0.00 58 1011.5
20260503020811 55 234 0.0 2.0 0.00 0.00 0.00 54 1011.5
20260503020304 56 234 1.0 3.0 0.00 0.00 0.00 55 1011.4
20260503015759 57 234 1.0 3.0 0.00 0.00 0.00 51 1011.4
20260503015731 57 232 1.0 2.0 0.00 0.00 0.00 48 1011.4
20260503014747 58 232 1.0 2.0 0.00 0.00 0.00 49 1011.4
20260503014241 58 248 1.0 4.0 0.00 0.00 0.00 44 1011.4
20260503013734 58 248 2.0 4.0 0.00 0.00 0.00 45 1011.4
20260503013229 57 250 2.0 3.0 0.00 0.00 0.00 46 1011.4
20260503012951 56 265 1.0 3.0 0.00 0.00 0.00 50 1011.4
20260503012218 56 266 0.0 2.0 0.00 0.00 0.00 52 1011.4
20260503011710 57 265 0.0 2.0 0.00 0.00 0.00 50 1011.5
20260503011205 58 273 0.0 2.0 0.00 0.00 0.00 48 1011.5
20260503010659 58 273 0.0 2.0 0.00 0.00 0.00 47 1011.3
20260503010153 58 273 0.0 0.0 0.00 0.00 0.00 46 1011.4
20260503005646 58 273 0.0 0.0 0.00 0.00 0.00 49 1011.4
20260503005141 58 273 0.0 0.0 0.00 0.00 0.00 49 1011.6
20260503004634 58 273 0.0 0.0 0.00 0.00 0.00 48 1011.6
20260503004129 59 273 0.0 0.0 0.00 0.00 0.00 44 1011.7
20260503003844 60 273 0.0 0.0 0.00 0.00 0.00 39 1011.7
20260503003117 60 273 0.0 2.0 0.00 0.00 0.00 38 1011.8
20260503002617 60 273 0.0 3.0 0.00 0.00 0.00 37 1011.8
20260503002117 60 273 0.0 3.0 0.00 0.00 0.00 37 1011.8
20260503001617 61 284 0.0 1.0 0.00 0.00 0.00 37 1011.9
20260503001117 61 284 1.0 3.0 0.00 0.00 0.00 37 1011.9
20260503000617 61 284 2.0 3.0 0.00 0.00 0.00 37 1012.0
20260503000115 61 259 2.0 3.0 0.00 0.00 0.00 36 1011.9
20260502235839 61 272 2.0 3.0 0.00 0.00 0.00 38 1012.1
20260502235113 62 273 3.0 4.0 0.00 0.00 0.00 37 1012.2
20260502234613 62 273 3.0 7.0 0.00 0.00 0.00 36 1012.2
20260502234113 62 275 4.0 8.0 0.00 0.00 0.00 36 1012.3
20260502233613 62 300 4.0 8.0 0.00 0.00 0.00 33 1012.3
20260502233113 62 293 3.0 6.0 0.00 0.00 0.00 35 1012.4
20260502232613 62 265 3.0 6.0 0.00 0.00 0.00 34 1012.5
20260502232108 62 267 4.0 7.0 0.00 0.00 0.00 35 1012.5
20260502231609 62 254 5.0 8.0 0.00 0.00 0.00 34 1012.5
20260502231113 62 257 6.0 10.0 0.00 0.00 0.00 33 1012.6
20260502230608 62 280 5.0 10.0 0.00 0.00 0.00 33 1012.6
20260502230108 62 303 5.0 9.0 0.00 0.00 0.00 32 1012.7
20260502225608 62 246 5.0 11.0 0.00 0.00 0.00 32 1012.6
20260502225108 63 269 5.0 11.0 0.00 0.00 0.00 32 1012.6
20260502224608 63 252 4.0 9.0 0.00 0.00 0.00 30 1012.7
20260502224110 63 270 4.0 10.0 0.00 0.00 0.00 31 1012.7
20260502223604 63 271 5.0 10.0 0.00 0.00 0.00 31 1012.8
20260502223548 63 209 5.0 10.0 0.00 0.00 0.00 29 1012.8
20260502222604 64 278 5.0 10.0 0.00 0.00 0.00 29 1012.8
20260502222104 63 270 5.0 10.0 0.00 0.00 0.00 31 1012.9
20260502221605 64 292 5.0 10.0 0.00 0.00 0.00 31 1012.8
20260502221104 63 295 4.0 8.0 0.00 0.00 0.00 33 1012.9
20260502220602 63 239 5.0 10.0 0.00 0.00 0.00 32 1013.0
20260502215602 64 222 5.0 11.0 0.00 0.00 0.00 33 1013.1
20260502215056 64 267 5.0 10.0 0.00 0.00 0.00 31 1013.3
20260502214550 64 259 6.0 12.0 0.00 0.00 0.00 31 1013.2
20260502214043 64 273 7.0 12.0 0.00 0.00 0.00 30 1013.2
20260502213538 64 292 6.0 11.0 0.00 0.00 0.00 30 1013.3
20260502213032 64 277 7.0 12.0 0.00 0.00 0.00 30 1013.4
20260502212525 64 259 7.0 12.0 0.00 0.00 0.00 31 1013.6
20260502212019 64 286 6.0 12.0 0.00 0.00 0.00 29 1013.6
20260502211514 63 277 5.0 12.0 0.00 0.00 0.00 33 1013.7
20260502211008 64 249 5.0 11.0 0.00 0.00 0.00 29 1013.7
20260502210731 64 267 7.0 11.0 0.00 0.00 0.00 30 1013.8
20260502205956 64 263 6.0 11.0 0.00 0.00 0.00 31 1013.8
20260502205450 64 246 5.0 11.0 0.00 0.00 0.00 28 1013.9
20260502205205 63 292 6.0 14.0 0.00 0.00 0.00 28 1013.9
20260502204438 64 344 7.0 14.0 0.00 0.00 0.00 32 1014.0
20260502203932 64 255 6.0 12.0 0.00 0.00 0.00 29 1014.2
20260502203425 64 209 7.0 11.0 0.00 0.00 0.00 28 1014.2
20260502202919 63 292 7.0 11.0 0.00 0.00 0.00 29 1014.3
20260502202414 63 279 7.0 11.0 0.00 0.00 0.00 30 1014.4
20260502202127 64 274 7.0 12.0 0.00 0.00 0.00 30 1014.5
20260502201402 63 241 6.0 12.0 0.00 0.00 0.00 30 1014.6
20260502200855 63 242 6.0 9.0 0.00 0.00 0.00 35 1014.6
20260502200350 63 238 7.0 15.0 0.00 0.00 0.00 31 1014.8
20260502195844 63 296 8.0 15.0 0.00 0.00 0.00 29 1014.7
20260502195337 63 238 8.0 13.0 0.00 0.00 0.00 28 1015.0
20260502194831 64 251 6.0 13.0 0.00 0.00 0.00 29 1015.0
20260502194325 64 226 5.0 10.0 0.00 0.00 0.00 30 1015.1
20260502193819 64 309 7.0 14.0 0.00 0.00 0.00 31 1015.2
20260502193313 64 306 6.0 14.0 0.00 0.00 0.00 28 1015.2
20260502192808 63 252 6.0 12.0 0.00 0.00 0.00 33 1015.4
20260502192525 63 301 6.0 13.0 0.00 0.00 0.00 29 1015.4
20260502191756 63 297 7.0 13.0 0.00 0.00 0.00 30 1015.6
20260502191251 63 286 7.0 13.0 0.00 0.00 0.00 30 1015.6